• En España
  • Lista de países
  • Para 7 días
  • Temperatura del agua
  • Mapa Satelital
  • El tiempo en el mapa
  • Informadores
  • user-avatar
    Iniciar sesión

    Tiempo cada hora Santiago del Estero

    Hoy, 26 Febrero, Lunes

    Tiempo Temperatura Precipitaciones Viento Presión Humedad
    00:00 +25°C° 0 mm 1 mps 743 mmHg 48%
    01:00 +25°C° 0 mm 1 mps 743 mmHg 49%
    02:00 +24°C° 0 mm 2 mps 743 mmHg 51%
    03:00 +24°C° 0 mm 2 mps 743 mmHg 53%
    04:00 +23°C° 0 mm 2 mps 743 mmHg 55%
    05:00 +21°C° 0 mm 2 mps 743 mmHg 57%
    06:00 +24°C° 0 mm 2 mps 743 mmHg 55%
    07:00 +25°C° 0 mm 2 mps 743 mmHg 52%
    08:00 +26°C° 0 mm 2 mps 743 mmHg 50%
    09:00 +28°C° 0 mm 2 mps 743 mmHg 44%
    10:00 +31°C° 0 mm 2 mps 743 mmHg 38%
    11:00 +33°C° 0 mm 1 mps 743 mmHg 32%
    12:00 +35°C° 0 mm 2 mps 742 mmHg 31%
    13:00 +36°C° 0 mm 2 mps 741 mmHg 29%
    14:00 +37°C° 0 mm 2 mps 741 mmHg 27%
    15:00 +37°C° 0 mm 2 mps 740 mmHg 27%
    16:00 +37°C° 0 mm 2 mps 740 mmHg 27%
    17:00 +37°C° 0 mm 3 mps 739 mmHg 28%
    18:00 +35°C° 0 mm 2 mps 739 mmHg 32%
    19:00 +32°C° 0 mm 2 mps 739 mmHg 36%
    20:00 +29°C° 0 mm 2 mps 740 mmHg 40%
    21:00 +29°C° 0 mm 2 mps 740 mmHg 41%
    22:00 +29°C° 0 mm 2 mps 741 mmHg 42%
    23:00 +29°C° 0 mm 2 mps 741 mmHg 43%

    Mañana, 27 Febrero, Martes

    Tiempo Temperatura Precipitaciones Viento Presión Humedad
    00:00 +28°C° 0 mm 2 mps 741 mmHg 45%
    01:00 +27°C° 0 mm 2 mps 740 mmHg 47%
    02:00 +27°C° 0 mm 2 mps 740 mmHg 49%
    03:00 +26°C° 0,2 mm 2 mps 740 mmHg 53%
    04:00 +25°C° 0,2 mm 1 mps 740 mmHg 57%
    05:00 +24°C° 0,2 mm 1 mps 739 mmHg 61%
    06:00 +25°C° 0,6 mm 1 mps 740 mmHg 61%
    07:00 +26°C° 0,6 mm 1 mps 740 mmHg 61%
    08:00 +27°C° 0,6 mm 1 mps 741 mmHg 61%
    09:00 +28°C° 0,1 mm 1 mps 741 mmHg 55%
    10:00 +30°C° 0,1 mm 1 mps 741 mmHg 50%
    11:00 +32°C° 0,1 mm 1 mps 741 mmHg 44%
    12:00 +34°C° 0 mm 2 mps 740 mmHg 40%
    13:00 +36°C° 0 mm 3 mps 739 mmHg 36%
    14:00 +37°C° 0 mm 3 mps 739 mmHg 32%
    15:00 +37°C° 0 mm 3 mps 738 mmHg 33%
    16:00 +37°C° 0 mm 3 mps 738 mmHg 33%
    17:00 +36°C° 0 mm 3 mps 738 mmHg 34%
    18:00 +35°C° 0 mm 3 mps 738 mmHg 38%
    19:00 +33°C° 0 mm 3 mps 738 mmHg 42%
    20:00 +31°C° 0 mm 2 mps 739 mmHg 47%
    21:00 +29°C° 1,4 mm 2 mps 739 mmHg 55%
    22:00 +28°C° 1,4 mm 2 mps 740 mmHg 63%
    23:00 +26°C° 1,4 mm 2 mps 740 mmHg 71%

    Pasado mañana, 28 Febrero, Miércoles

    Tiempo Temperatura Precipitaciones Viento Presión Humedad
    00:00 +25°C° 2,2 mm 2 mps 740 mmHg 76%
    01:00 +24°C° 2,2 mm 2 mps 740 mmHg 80%
    02:00 +24°C° 2,2 mm 2 mps 739 mmHg 84%
    03:00 +23°C° 1,2 mm 2 mps 739 mmHg 86%
    04:00 +23°C° 1,2 mm 2 mps 739 mmHg 88%
    05:00 +23°C° 1,2 mm 1 mps 739 mmHg 89%
    06:00 +23°C° 1,9 mm 2 mps 740 mmHg 88%
    07:00 +24°C° 1,9 mm 2 mps 740 mmHg 86%
    08:00 +24°C° 1,9 mm 2 mps 741 mmHg 84%
    09:00 +25°C° 0,6 mm 2 mps 741 mmHg 82%
    10:00 +26°C° 0,6 mm 2 mps 741 mmHg 79%
    11:00 +26°C° 0,6 mm 2 mps 742 mmHg 77%
    12:00 +28°C° 0,4 mm 3 mps 741 mmHg 72%
    13:00 +29°C° 0,4 mm 4 mps 740 mmHg 66%
    14:00 +30°C° 0,4 mm 5 mps 740 mmHg 61%
    15:00 +32°C° 0,3 mm 4 mps 739 mmHg 59%
    16:00 +32°C° 0,3 mm 4 mps 739 mmHg 58%
    17:00 +32°C° 0,3 mm 4 mps 739 mmHg 56%
    18:00 +29°C° 0,3 mm 3 mps 739 mmHg 62%
    19:00 +28°C° 0,3 mm 3 mps 740 mmHg 67%
    20:00 +26°C° 0,3 mm 2 mps 740 mmHg 72%
    21:00 +25°C° 2,4 mm 3 mps 741 mmHg 77%
    22:00 +24°C° 2,4 mm 3 mps 742 mmHg 82%
    23:00 +22°C° 2,4 mm 3 mps 742 mmHg 87%

    1 Marzo, Jueves

    Tiempo Temperatura Precipitaciones Viento Presión Humedad
    00:00 +22°C° 1 mm 3 mps 742 mmHg 88%
    01:00 +21°C° 1 mm 3 mps 742 mmHg 89%
    02:00 +21°C° 1 mm 2 mps 742 mmHg 90%
    03:00 +21°C° 0,4 mm 2 mps 741 mmHg 90%
    04:00 +21°C° 0,4 mm 2 mps 741 mmHg 89%
    05:00 +21°C° 0,4 mm 2 mps 741 mmHg 89%
    06:00 +23°C° 0 mm 2 mps 742 mmHg 85%
    07:00 +24°C° 0 mm 2 mps 743 mmHg 81%
    08:00 +25°C° 0 mm 2 mps 743 mmHg 78%
    09:00 +27°C° 0,1 mm 2 mps 743 mmHg 71%
    10:00 +28°C° 0,1 mm 2 mps 744 mmHg 64%
    11:00 +30°C° 0,1 mm 2 mps 744 mmHg 58%
    12:00 +31°C° 0,1 mm 2 mps 743 mmHg 54%
    13:00 +32°C° 0,1 mm 2 mps 742 mmHg 51%
    14:00 +33°C° 0,1 mm 1 mps 742 mmHg 47%
    15:00 +34°C° 0 mm 2 mps 741 mmHg 48%
    16:00 +34°C° 0 mm 2 mps 741 mmHg 48%
    17:00 +34°C° 0 mm 2 mps 741 mmHg 49%
    18:00 +31°C° 0 mm 2 mps 741 mmHg 54%
    19:00 +30°C° 0 mm 2 mps 742 mmHg 59%
    20:00 +28°C° 0 mm 1 mps 742 mmHg 64%
    21:00 +28°C° 0,6 mm 2 mps 742 mmHg 69%
    22:00 +27°C° 0,6 mm 2 mps 743 mmHg 73%
    23:00 +26°C° 0,6 mm 2 mps 743 mmHg 78%

    2 Marzo, Viernes

    Tiempo Temperatura Precipitaciones Viento Presión Humedad
    00:00 +26°C° 0,1 mm 2 mps 743 mmHg 79%
    01:00 +26°C° 0,1 mm 2 mps 743 mmHg 80%
    02:00 +25°C° 0,1 mm 2 mps 742 mmHg 81%
    03:00 +25°C° 0,2 mm 2 mps 742 mmHg 82%
    04:00 +25°C° 0,2 mm 1 mps 742 mmHg 82%
    05:00 +24°C° 0,2 mm 1 mps 742 mmHg 83%
    06:00 +26°C° 0 mm 1 mps 742 mmHg 79%
    07:00 +27°C° 0 mm 1 mps 743 mmHg 75%
    08:00 +28°C° 0 mm 1 mps 743 mmHg 70%
    09:00 +30°C° 0 mm 1 mps 743 mmHg 63%
    10:00 +32°C° 0 mm 1 mps 743 mmHg 56%
    11:00 +34°C° 0 mm 1 mps 743 mmHg 49%
    12:00 +34°C° 0 mm 1 mps 742 mmHg 47%
    13:00 +36°C° 0 mm 2 mps 741 mmHg 45%
    14:00 +36°C° 0 mm 2 mps 740 mmHg 42%
    15:00 +36°C° 0 mm 2 mps 740 mmHg 43%
    16:00 +36°C° 0 mm 2 mps 740 mmHg 45%
    17:00 +36°C° 0 mm 2 mps 739 mmHg 46%
    18:00 +34°C° 0 mm 2 mps 740 mmHg 50%
    19:00 +32°C° 0 mm 2 mps 740 mmHg 53%
    20:00 +31°C° 0 mm 1 mps 741 mmHg 57%
    21:00 +30°C° 0 mm 2 mps 741 mmHg 60%
    22:00 +29°C° 0 mm 2 mps 741 mmHg 63%
    23:00 +29°C° 0 mm 2 mps 741 mmHg 66%

    3 Marzo, Sábado

    Tiempo Temperatura Precipitaciones Viento Presión Humedad
    00:00 +28°C° 0 mm 2 mps 741 mmHg 69%
    01:00 +27°C° 0 mm 2 mps 741 mmHg 72%
    02:00 +27°C° 0 mm 2 mps 741 mmHg 75%
    03:00 +26°C° 0 mm 2 mps 740 mmHg 76%
    04:00 +26°C° 0 mm 2 mps 740 mmHg 76%
    05:00 +26°C° 0 mm 1 mps 740 mmHg 77%
    06:00 +27°C° 0 mm 1 mps 741 mmHg 73%
    07:00 +28°C° 0 mm 1 mps 741 mmHg 69%
    08:00 +30°C° 0 mm 1 mps 741 mmHg 65%
    09:00 +31°C° 0 mm 1 mps 741 mmHg 59%
    10:00 +33°C° 0 mm 1 mps 741 mmHg 53%
    11:00 +35°C° 0 mm 1 mps 741 mmHg 47%
    12:00 +36°C° 0 mm 2 mps 740 mmHg 45%
    13:00 +37°C° 0 mm 2 mps 739 mmHg 44%
    14:00 +37°C° 0 mm 3 mps 739 mmHg 43%
    15:00 +37°C° 0 mm 3 mps 738 mmHg 43%
    16:00 +36°C° 0 mm 4 mps 738 mmHg 44%
    17:00 +36°C° 0 mm 4 mps 737 mmHg 45%
    18:00 +35°C° 0 mm 3 mps 738 mmHg 50%
    19:00 +33°C° 0 mm 3 mps 738 mmHg 55%
    20:00 +30°C° 0 mm 2 mps 738 mmHg 60%
    21:00 +30°C° 0 mm 2 mps 739 mmHg 62%
    22:00 +29°C° 0 mm 2 mps 739 mmHg 64%
    23:00 +29°C° 0 mm 1 mps 739 mmHg 66%
    Mostrar más